Hang Jun 9 — BTYL — position and weather

sailwx.info

Track history (hours):
 
Tides and Currents Weather Stations Pressure Air Temp Water Temp Dewpoint Dewpoint Depression Visibility Wind Speed Wind Dir Waves Ship Positions

Hang Jun 9

Last reported at 2014-Sep-03 01:33 UTC. Time now 2014-Sep-03 02:27 UTC.
Position N 31°34' E 121°19'.

Length 85 m; draft 3.6 m.

Type: Dredging. MMSI: 412070110.

Date/timePositionNaut miles runAvg speedWind from/ knotsBaromVisibWave heightAir tempDewpointWater temp
2014-Sep-03 01:33N 31°34' E 121°19'1 0.7
2014-Sep-03 00:33N 31°34' E 121°19'1 0.7
2014-Sep-02 23:34N 31°33' E 121°20'5 4.1
2014-Sep-02 22:25N 31°37' E 121°18'0 0.0
2014-Sep-02 17:09N 31°37' E 121°18'0 0.0
2014-Sep-02 16:14N 31°37' E 121°18'0 0.0
2014-Sep-02 15:28N 31°37' E 121°18'0 0.0
2014-Sep-02 14:28N 31°37' E 121°18'0 0.0
2014-Sep-02 13:27N 31°37' E 121°18'0 0.0
2014-Sep-02 12:26N 31°37' E 121°18'0 0.0
2014-Sep-02 11:32N 31°37' E 121°18'0 0.1
2014-Sep-02 10:29N 31°37' E 121°18'4 3.8
2014-Sep-02 09:32N 31°34' E 121°20'0 0.2
2014-Sep-02 08:28N 31°34' E 121°19'1 1.0
2014-Sep-02 07:33N 31°33' E 121°19'0 0.3
2014-Sep-02 06:33N 31°33' E 121°20'0 0.1
2014-Sep-02 05:29N 31°33' E 121°20'0 0.4
2014-Sep-02 04:33N 31°33' E 121°19'0 0.1
2014-Sep-02 03:30N 31°33' E 121°19'0 0.3
2014-Sep-02 02:31N 31°33' E 121°20'5 2.2
2014-Sep-02 00:05N 31°38' E 121°17'0 0.0
2014-Sep-01 23:29N 31°38' E 121°17'0 0.0
2014-Sep-01 22:27N 31°38' E 121°17'0 0.0
2014-Sep-01 21:27N 31°38' E 121°17'0 0.0
2014-Sep-01 20:33N 31°38' E 121°17'0 0.0
2014-Sep-01 19:29N 31°38' E 121°17'0 0.0
2014-Sep-01 18:34N 31°38' E 121°17'0 0.0
2014-Sep-01 14:21N 31°38' E 121°17'0 0.0
2014-Sep-01 13:21N 31°38' E 121°17'0 0.0
2014-Sep-01 11:16N 31°38' E 121°17'2 1.9
2014-Sep-01 10:26N 31°36' E 121°18'4 4.2
2014-Sep-01 09:33N 31°33' E 121°20'0 0.2
2014-Sep-01 08:33N 31°33' E 121°20'0 0.1
2014-Sep-01 07:34N 31°33' E 121°20'0 0.1
2014-Sep-01 06:28N 31°33' E 121°19'1 1.2
2014-Sep-01 05:33N 31°34' E 121°20'1 0.9
2014-Sep-01 04:33N 31°33' E 121°19'1 0.3
2014-Sep-01 02:13N 31°33' E 121°20'1 1.7
2014-Sep-01 01:33N 31°34' E 121°19'0 0.2
2014-Sep-01 00:33N 31°34' E 121°19'1 1.3
2014-Aug-31 23:33N 31°33' E 121°20'5 5.2
2014-Aug-31 22:29N 31°38' E 121°17'0 0.0
2014-Aug-31 21:26N 31°38' E 121°17'0 0.0
2014-Aug-31 20:29N 31°38' E 121°17'0 0.0
2014-Aug-31 19:34N 31°38' E 121°17'0 0.0
2014-Aug-31 18:33N 31°38' E 121°17'0 0.0
2014-Aug-31 15:30N 31°38' E 121°17'0 0.0
2014-Aug-31 14:32N 31°38' E 121°17'0 0.0
2014-Aug-31 13:09N 31°38' E 121°17'0 0.1
2014-Aug-31 12:28N 31°38' E 121°17'0 0.0
2014-Aug-31 11:24N 31°38' E 121°17'3 3.3
2014-Aug-31 10:30N 31°35' E 121°19'2 1.7
2014-Aug-31 09:33N 31°33' E 121°19'0 0.1
2014-Aug-31 08:32N 31°33' E 121°19'1 0.9
2014-Aug-31 07:31N 31°34' E 121°19'1 0.7
2014-Aug-31 06:34N 31°34' E 121°19'1 0.9
2014-Aug-31 05:32N 31°33' E 121°20'1 0.7
2014-Aug-31 04:33N 31°34' E 121°19'0 0.2
2014-Aug-31 03:33N 31°34' E 121°19'0 0.2
2014-Aug-31 02:33N 31°34' E 121°19'1 0.9
2014-Aug-31 01:32N 31°33' E 121°20'0 0.1
2014-Aug-31 00:34N 31°33' E 121°20'0 0.1
2014-Aug-30 23:34N 31°33' E 121°20'6 5.5
2014-Aug-30 22:33N 31°38' E 121°17'0 0.0
2014-Aug-30 21:33N 31°38' E 121°17'0 0.1
2014-Aug-30 20:33N 31°38' E 121°17'0 0.0
2014-Aug-30 19:28N 31°38' E 121°17'0 0.0
2014-Aug-30 18:18N 31°38' E 121°17'5 0.5
2014-Aug-30 09:22N 31°33' E 121°19'1 0.2
2014-Aug-30 06:15N 31°33' E 121°20'1 1.0
2014-Aug-30 05:34N 31°33' E 121°19'1 0.1
2014-Aug-30 01:14N 31°34' E 121°19'1 1.7
2014-Aug-30 00:27N 31°33' E 121°20'0 0.2
2014-Aug-29 23:28N 31°33' E 121°20'6 6.4
2014-Aug-29 22:31N 31°38' E 121°17'0 0.0
2014-Aug-29 21:29N 31°38' E 121°17'0 0.0
2014-Aug-29 20:28N 31°38' E 121°17'0 0.1
2014-Aug-29 19:31N 31°38' E 121°17'0 0.0
2014-Aug-29 18:33N 31°38' E 121°17'0 0.0
2014-Aug-29 17:34N 31°38' E 121°17'0 0.1
2014-Aug-29 16:28N 31°38' E 121°17'0 0.1
2014-Aug-29 15:28N 31°38' E 121°17'1 0.1
2014-Aug-29 10:20N 31°38' E 121°17'5 5.9
2014-Aug-29 09:33N 31°33' E 121°19'0 0.5
2014-Aug-29 08:33N 31°34' E 121°19'0 0.3
2014-Aug-29 07:32N 31°34' E 121°19'1 0.5
2014-Aug-29 06:31N 31°34' E 121°19'1 0.5
2014-Aug-29 05:32N 31°33' E 121°19'0 0.3
2014-Aug-29 04:29N 31°33' E 121°20'0 0.2
2014-Aug-29 03:33N 31°33' E 121°20'0 0.1
2014-Aug-29 02:29N 31°33' E 121°20'1 1.4
2014-Aug-29 01:31N 31°34' E 121°19'1 1.5
2014-Aug-29 00:33N 31°33' E 121°20'0 0.4
2014-Aug-28 23:33N 31°33' E 121°20'4 3.5
2014-Aug-28 22:19N 31°37' E 121°18'0 0.0
2014-Aug-28 20:30N 31°37' E 121°18'0 0.1
2014-Aug-28 19:15N 31°37' E 121°18'0 0.0
2014-Aug-28 18:33N 31°37' E 121°18'0 0.0
2014-Aug-28 17:33N 31°37' E 121°18'0 0.0
2014-Aug-28 16:18N 31°37' E 121°18'0 0.0
2014-Aug-28 12:12N 31°37' E 121°18'0 0.0
2014-Aug-28 11:28N 31°37' E 121°18'0 0.0
2014-Aug-28 10:33N 31°37' E 121°18'4 3.9
2014-Aug-28 09:33N 31°33' E 121°19'0 0.1
2014-Aug-28 08:29N 31°34' E 121°19'1 0.8
2014-Aug-28 07:33N 31°33' E 121°20'0 0.0
2014-Aug-28 06:33N 31°33' E 121°20'1 1.3
2014-Aug-28 05:33N 31°34' E 121°19'1 1.2
2014-Aug-28 04:34N 31°33' E 121°20'0 0.3
2014-Aug-28 03:32N 31°33' E 121°20'0 0.3
2014-Aug-28 02:33N 31°33' E 121°20'1 0.7
2014-Aug-28 01:34N 31°34' E 121°20'1 1.0
2014-Aug-28 00:33N 31°33' E 121°20'1 0.9
2014-Aug-27 23:33N 31°33' E 121°19'4 4.0
2014-Aug-27 22:32N 31°37' E 121°18'0 0.1
2014-Aug-27 21:31N 31°37' E 121°18'0 0.1
2014-Aug-27 20:33N 31°37' E 121°18'0 0.1
2014-Aug-27 19:29N 31°37' E 121°18'0 0.0
2014-Aug-27 18:33N 31°37' E 121°18'0 0.0
2014-Aug-27 17:28N 31°37' E 121°18'0 0.0
2014-Aug-27 16:33N 31°37' E 121°18'0 0.1
2014-Aug-27 15:33N 31°37' E 121°18'0 0.1
2014-Aug-27 14:31N 31°37' E 121°18'0 0.0
2014-Aug-27 13:29N 31°37' E 121°18'0 0.0
2014-Aug-27 12:18N 31°37' E 121°18'0 0.0
2014-Aug-27 11:32N 31°37' E 121°18'0 0.0
2014-Aug-27 10:26N 31°37' E 121°18'4 4.2
2014-Aug-27 09:34N 31°34' E 121°19'0 0.1
2014-Aug-27 08:33N 31°33' E 121°19'1 0.6
2014-Aug-27 07:33N 31°33' E 121°20'1 0.6
2014-Aug-27 06:33N 31°34' E 121°20'1 1.0
2014-Aug-27 05:33N 31°34' E 121°18'2 1.5
2014-Aug-27 04:33N 31°33' E 121°20'0 0.2
2014-Aug-27 03:33N 31°33' E 121°20'0 0.3
2014-Aug-27 02:33N 31°33' E 121°20'8 5.6
2014-Aug-27 01:05N 31°39' E 121°13'0 0.5
2014-Aug-27 00:32N 31°39' E 121°13'2 0.1
2014-Aug-26 08:22N 31°38' E 121°15'4 4.2
2014-Aug-26 07:32N 31°36' E 121°18'3 3.0
2014-Aug-26 06:33N 31°33' E 121°20'0 0.1
2014-Aug-26 05:34N 31°33' E 121°20'0 0.1
2014-Aug-26 04:33N 31°33' E 121°20'0 0.3
2014-Aug-26 03:33N 31°33' E 121°20'1 0.9
2014-Aug-26 02:13N 31°34' E 121°19'1 1.8
2014-Aug-26 01:34N 31°33' E 121°20'1 0.7
2014-Aug-26 00:33N 31°33' E 121°19'0 0.2
2014-Aug-25 23:32N 31°34' E 121°19'4 3.5
2014-Aug-25 22:28N 31°37' E 121°17'0 0.3
2014-Aug-25 21:29N 31°37' E 121°18'0 0.0
2014-Aug-25 20:28N 31°37' E 121°18'0 0.1
2014-Aug-25 19:31N 31°37' E 121°18'0 0.1
2014-Aug-25 18:24N 31°37' E 121°17'0 0.0
2014-Aug-25 17:33N 31°37' E 121°17'0 0.0
2014-Aug-25 16:34N 31°37' E 121°17'0 0.0
2014-Aug-25 15:33N 31°37' E 121°17'0 0.1
2014-Aug-25 14:33N 31°37' E 121°18'0 0.0
2014-Aug-25 13:03N 31°37' E 121°18'0 0.0
2014-Aug-25 11:21N 31°37' E 121°18'4 4.8
2014-Aug-25 10:34N 31°34' E 121°19'1 0.7
2014-Aug-25 09:32N 31°34' E 121°19'1 0.8
2014-Aug-25 08:33N 31°34' E 121°19'1 0.6
2014-Aug-25 07:34N 31°34' E 121°20'1 0.7
2014-Aug-25 06:26N 31°33' E 121°19'1 0.6
2014-Aug-25 05:27N 31°34' E 121°19'1 1.2
2014-Aug-25 04:33N 31°33' E 121°20'0 0.5
2014-Aug-25 03:34N 31°33' E 121°19'0 0.3
2014-Aug-25 02:33N 31°34' E 121°19'1 0.6
2014-Aug-25 01:31N 31°34' E 121°20'1 0.7
2014-Aug-25 00:33N 31°33' E 121°19'1 0.8
2014-Aug-24 23:31N 31°33' E 121°20'5 1.1
2014-Aug-24 19:04N 31°37' E 121°18'0 0.1
2014-Aug-24 18:31N 31°37' E 121°18'0 0.1
2014-Aug-24 17:32N 31°37' E 121°18'0 0.0
2014-Aug-24 14:06N 31°37' E 121°18'0 0.0
2014-Aug-24 13:33N 31°37' E 121°18'0 0.1
2014-Aug-24 11:17N 31°37' E 121°18'4 5.5
2014-Aug-24 10:34N 31°33' E 121°19'1 0.5
2014-Aug-24 09:16N 31°33' E 121°20'2 2.1
2014-Aug-24 08:31N 31°34' E 121°19'1 0.6
2014-Aug-24 07:31N 31°34' E 121°19'1 1.3
2014-Aug-24 06:27N 31°35' E 121°19'2 1.8
2014-Aug-24 05:33N 31°34' E 121°19'0 0.1
2014-Aug-24 04:33N 31°34' E 121°19'0 0.5
2014-Aug-24 03:33N 31°34' E 121°19'1 0.6
2014-Aug-24 02:33N 31°33' E 121°19'  
Track history (hours):
 
Tides and Currents Weather Stations Pressure Air Temp Water Temp Dewpoint Dewpoint Depression Visibility Wind Speed Wind Dir Waves Ship Positions

Hang Jun 9

Last reported at 2014-Sep-03 01:33 UTC. Time now 2014-Sep-03 02:27 UTC.
Position N 31°34' E 121°19'.

Length 85 m; draft 3.6 m.

Type: Dredging. MMSI: 412070110.

Date/timePositionNaut miles runAvg speedWind from/ knotsBaromVisibWave heightAir tempDewpointWater temp
2014-Sep-03 01:33N 31°34' E 121°19'1 0.7
2014-Sep-03 00:33N 31°34' E 121°19'1 0.7
2014-Sep-02 23:34N 31°33' E 121°20'5 4.1
2014-Sep-02 22:25N 31°37' E 121°18'0 0.0
2014-Sep-02 17:09N 31°37' E 121°18'0 0.0
2014-Sep-02 16:14N 31°37' E 121°18'0 0.0
2014-Sep-02 15:28N 31°37' E 121°18'0 0.0
2014-Sep-02 14:28N 31°37' E 121°18'0 0.0
2014-Sep-02 13:27N 31°37' E 121°18'0 0.0
2014-Sep-02 12:26N 31°37' E 121°18'0 0.0
2014-Sep-02 11:32N 31°37' E 121°18'0 0.1
2014-Sep-02 10:29N 31°37' E 121°18'4 3.8
2014-Sep-02 09:32N 31°34' E 121°20'0 0.2
2014-Sep-02 08:28N 31°34' E 121°19'1 1.0
2014-Sep-02 07:33N 31°33' E 121°19'0 0.3
2014-Sep-02 06:33N 31°33' E 121°20'0 0.1
2014-Sep-02 05:29N 31°33' E 121°20'0 0.4
2014-Sep-02 04:33N 31°33' E 121°19'0 0.1
2014-Sep-02 03:30N 31°33' E 121°19'0 0.3
2014-Sep-02 02:31N 31°33' E 121°20'5 2.2
2014-Sep-02 00:05N 31°38' E 121°17'0 0.0
2014-Sep-01 23:29N 31°38' E 121°17'0 0.0
2014-Sep-01 22:27N 31°38' E 121°17'0 0.0
2014-Sep-01 21:27N 31°38' E 121°17'0 0.0
2014-Sep-01 20:33N 31°38' E 121°17'0 0.0
2014-Sep-01 19:29N 31°38' E 121°17'0 0.0
2014-Sep-01 18:34N 31°38' E 121°17'0 0.0
2014-Sep-01 14:21N 31°38' E 121°17'0 0.0
2014-Sep-01 13:21N 31°38' E 121°17'0 0.0
2014-Sep-01 11:16N 31°38' E 121°17'2 1.9
2014-Sep-01 10:26N 31°36' E 121°18'4 4.2
2014-Sep-01 09:33N 31°33' E 121°20'0 0.2
2014-Sep-01 08:33N 31°33' E 121°20'0 0.1
2014-Sep-01 07:34N 31°33' E 121°20'0 0.1
2014-Sep-01 06:28N 31°33' E 121°19'1 1.2
2014-Sep-01 05:33N 31°34' E 121°20'1 0.9
2014-Sep-01 04:33N 31°33' E 121°19'1 0.3
2014-Sep-01 02:13N 31°33' E 121°20'1 1.7
2014-Sep-01 01:33N 31°34' E 121°19'0 0.2
2014-Sep-01 00:33N 31°34' E 121°19'1 1.3
2014-Aug-31 23:33N 31°33' E 121°20'5 5.2
2014-Aug-31 22:29N 31°38' E 121°17'0 0.0
2014-Aug-31 21:26N 31°38' E 121°17'0 0.0
2014-Aug-31 20:29N 31°38' E 121°17'0 0.0
2014-Aug-31 19:34N 31°38' E 121°17'0 0.0
2014-Aug-31 18:33N 31°38' E 121°17'0 0.0
2014-Aug-31 15:30N 31°38' E 121°17'0 0.0
2014-Aug-31 14:32N 31°38' E 121°17'0 0.0
2014-Aug-31 13:09N 31°38' E 121°17'0 0.1
2014-Aug-31 12:28N 31°38' E 121°17'0 0.0
2014-Aug-31 11:24N 31°38' E 121°17'3 3.3
2014-Aug-31 10:30N 31°35' E 121°19'2 1.7
2014-Aug-31 09:33N 31°33' E 121°19'0 0.1
2014-Aug-31 08:32N 31°33' E 121°19'1 0.9
2014-Aug-31 07:31N 31°34' E 121°19'1 0.7
2014-Aug-31 06:34N 31°34' E 121°19'1 0.9
2014-Aug-31 05:32N 31°33' E 121°20'1 0.7
2014-Aug-31 04:33N 31°34' E 121°19'0 0.2
2014-Aug-31 03:33N 31°34' E 121°19'0 0.2
2014-Aug-31 02:33N 31°34' E 121°19'1 0.9
2014-Aug-31 01:32N 31°33' E 121°20'0 0.1
2014-Aug-31 00:34N 31°33' E 121°20'0 0.1
2014-Aug-30 23:34N 31°33' E 121°20'6 5.5
2014-Aug-30 22:33N 31°38' E 121°17'0 0.0
2014-Aug-30 21:33N 31°38' E 121°17'0 0.1
2014-Aug-30 20:33N 31°38' E 121°17'0 0.0
2014-Aug-30 19:28N 31°38' E 121°17'0 0.0
2014-Aug-30 18:18N 31°38' E 121°17'5 0.5
2014-Aug-30 09:22N 31°33' E 121°19'1 0.2
2014-Aug-30 06:15N 31°33' E 121°20'1 1.0
2014-Aug-30 05:34N 31°33' E 121°19'1 0.1
2014-Aug-30 01:14N 31°34' E 121°19'1 1.7
2014-Aug-30 00:27N 31°33' E 121°20'0 0.2
2014-Aug-29 23:28N 31°33' E 121°20'6 6.4
2014-Aug-29 22:31N 31°38' E 121°17'0 0.0
2014-Aug-29 21:29N 31°38' E 121°17'0 0.0
2014-Aug-29 20:28N 31°38' E 121°17'0 0.1
2014-Aug-29 19:31N 31°38' E 121°17'0 0.0
2014-Aug-29 18:33N 31°38' E 121°17'0 0.0
2014-Aug-29 17:34N 31°38' E 121°17'0 0.1
2014-Aug-29 16:28N 31°38' E 121°17'0 0.1
2014-Aug-29 15:28N 31°38' E 121°17'1 0.1
2014-Aug-29 10:20N 31°38' E 121°17'5 5.9
2014-Aug-29 09:33N 31°33' E 121°19'0 0.5
2014-Aug-29 08:33N 31°34' E 121°19'0 0.3
2014-Aug-29 07:32N 31°34' E 121°19'1 0.5
2014-Aug-29 06:31N 31°34' E 121°19'1 0.5
2014-Aug-29 05:32N 31°33' E 121°19'0 0.3
2014-Aug-29 04:29N 31°33' E 121°20'0 0.2
2014-Aug-29 03:33N 31°33' E 121°20'0 0.1
2014-Aug-29 02:29N 31°33' E 121°20'1 1.4
2014-Aug-29 01:31N 31°34' E 121°19'1 1.5
2014-Aug-29 00:33N 31°33' E 121°20'0 0.4
2014-Aug-28 23:33N 31°33' E 121°20'4 3.5
2014-Aug-28 22:19N 31°37' E 121°18'0 0.0
2014-Aug-28 20:30N 31°37' E 121°18'0 0.1
2014-Aug-28 19:15N 31°37' E 121°18'0 0.0
2014-Aug-28 18:33N 31°37' E 121°18'0 0.0
2014-Aug-28 17:33N 31°37' E 121°18'0 0.0
2014-Aug-28 16:18N 31°37' E 121°18'0 0.0
2014-Aug-28 12:12N 31°37' E 121°18'0 0.0
2014-Aug-28 11:28N 31°37' E 121°18'0 0.0
2014-Aug-28 10:33N 31°37' E 121°18'4 3.9
2014-Aug-28 09:33N 31°33' E 121°19'0 0.1
2014-Aug-28 08:29N 31°34' E 121°19'1 0.8
2014-Aug-28 07:33N 31°33' E 121°20'0 0.0
2014-Aug-28 06:33N 31°33' E 121°20'1 1.3
2014-Aug-28 05:33N 31°34' E 121°19'1 1.2
2014-Aug-28 04:34N 31°33' E 121°20'0 0.3
2014-Aug-28 03:32N 31°33' E 121°20'0 0.3
2014-Aug-28 02:33N 31°33' E 121°20'1 0.7
2014-Aug-28 01:34N 31°34' E 121°20'1 1.0
2014-Aug-28 00:33N 31°33' E 121°20'1 0.9
2014-Aug-27 23:33N 31°33' E 121°19'4 4.0
2014-Aug-27 22:32N 31°37' E 121°18'0 0.1
2014-Aug-27 21:31N 31°37' E 121°18'0 0.1
2014-Aug-27 20:33N 31°37' E 121°18'0 0.1
2014-Aug-27 19:29N 31°37' E 121°18'0 0.0
2014-Aug-27 18:33N 31°37' E 121°18'0 0.0
2014-Aug-27 17:28N 31°37' E 121°18'0 0.0
2014-Aug-27 16:33N 31°37' E 121°18'0 0.1
2014-Aug-27 15:33N 31°37' E 121°18'0 0.1
2014-Aug-27 14:31N 31°37' E 121°18'0 0.0
2014-Aug-27 13:29N 31°37' E 121°18'0 0.0
2014-Aug-27 12:18N 31°37' E 121°18'0 0.0
2014-Aug-27 11:32N 31°37' E 121°18'0 0.0
2014-Aug-27 10:26N 31°37' E 121°18'4 4.2
2014-Aug-27 09:34N 31°34' E 121°19'0 0.1
2014-Aug-27 08:33N 31°33' E 121°19'1 0.6
2014-Aug-27 07:33N 31°33' E 121°20'1 0.6
2014-Aug-27 06:33N 31°34' E 121°20'1 1.0
2014-Aug-27 05:33N 31°34' E 121°18'2 1.5
2014-Aug-27 04:33N 31°33' E 121°20'0 0.2
2014-Aug-27 03:33N 31°33' E 121°20'0 0.3
2014-Aug-27 02:33N 31°33' E 121°20'8 5.6
2014-Aug-27 01:05N 31°39' E 121°13'0 0.5
2014-Aug-27 00:32N 31°39' E 121°13'2 0.1
2014-Aug-26 08:22N 31°38' E 121°15'4 4.2
2014-Aug-26 07:32N 31°36' E 121°18'3 3.0
2014-Aug-26 06:33N 31°33' E 121°20'0 0.1
2014-Aug-26 05:34N 31°33' E 121°20'0 0.1
2014-Aug-26 04:33N 31°33' E 121°20'0 0.3
2014-Aug-26 03:33N 31°33' E 121°20'1 0.9
2014-Aug-26 02:13N 31°34' E 121°19'1 1.8
2014-Aug-26 01:34N 31°33' E 121°20'1 0.7
2014-Aug-26 00:33N 31°33' E 121°19'0 0.2
2014-Aug-25 23:32N 31°34' E 121°19'4 3.5
2014-Aug-25 22:28N 31°37' E 121°17'0 0.3
2014-Aug-25 21:29N 31°37' E 121°18'0 0.0
2014-Aug-25 20:28N 31°37' E 121°18'0 0.1
2014-Aug-25 19:31N 31°37' E 121°18'0 0.1
2014-Aug-25 18:24N 31°37' E 121°17'0 0.0
2014-Aug-25 17:33N 31°37' E 121°17'0 0.0
2014-Aug-25 16:34N 31°37' E 121°17'0 0.0
2014-Aug-25 15:33N 31°37' E 121°17'0 0.1
2014-Aug-25 14:33N 31°37' E 121°18'0 0.0
2014-Aug-25 13:03N 31°37' E 121°18'0 0.0
2014-Aug-25 11:21N 31°37' E 121°18'4 4.8
2014-Aug-25 10:34N 31°34' E 121°19'1 0.7
2014-Aug-25 09:32N 31°34' E 121°19'1 0.8
2014-Aug-25 08:33N 31°34' E 121°19'1 0.6
2014-Aug-25 07:34N 31°34' E 121°20'1 0.7
2014-Aug-25 06:26N 31°33' E 121°19'1 0.6
2014-Aug-25 05:27N 31°34' E 121°19'1 1.2
2014-Aug-25 04:33N 31°33' E 121°20'0 0.5
2014-Aug-25 03:34N 31°33' E 121°19'0 0.3
2014-Aug-25 02:33N 31°34' E 121°19'1 0.6
2014-Aug-25 01:31N 31°34' E 121°20'1 0.7
2014-Aug-25 00:33N 31°33' E 121°19'1 0.8
2014-Aug-24 23:31N 31°33' E 121°20'5 1.1
2014-Aug-24 19:04N 31°37' E 121°18'0 0.1
2014-Aug-24 18:31N 31°37' E 121°18'0 0.1
2014-Aug-24 17:32N 31°37' E 121°18'0 0.0
2014-Aug-24 14:06N 31°37' E 121°18'0 0.0
2014-Aug-24 13:33N 31°37' E 121°18'0 0.1
2014-Aug-24 11:17N 31°37' E 121°18'4 5.5
2014-Aug-24 10:34N 31°33' E 121°19'1 0.5
2014-Aug-24 09:16N 31°33' E 121°20'2 2.1
2014-Aug-24 08:31N 31°34' E 121°19'1 0.6
2014-Aug-24 07:31N 31°34' E 121°19'1 1.3
2014-Aug-24 06:27N 31°35' E 121°19'2 1.8
2014-Aug-24 05:33N 31°34' E 121°19'0 0.1
2014-Aug-24 04:33N 31°34' E 121°19'0 0.5
2014-Aug-24 03:33N 31°34' E 121°19'1 0.6
2014-Aug-24 02:33N 31°33' E 121°19'  

Dump ship's entire track history